This demonstration page uses our WeatherBlox Daily Observations layout. Learn more.

Left ArrowRight Arrow

39.95238, -75.16362

Hourly Observations for August 10, 2016

Temp ( °F °C ) Dew Point ( °F °C ) Humidity (%) Winds ( mph kmh ) Pressure ( in mb ) Visibility ( mi km ) Precip ( " mm )
12:54 am 00:54 Cloudy 78 25.6 71 21.7 79 79 S 5 7 30.20 1023 10 16 0.00 0.00
1:54 am 01:54 Mostly Cloudy 77 25 71 21.7 82 82 SSW 7 11 30.20 1023 10 16 0.00 0.00
2:54 am 02:54 Cloudy 77 25 72 22.2 85 85 SSW 6 9 30.19 1022 10 16 0.00 0.00
3:54 am 03:54 Mostly Cloudy 77 25 72 22.2 85 85 SSW 6 9 30.17 1022 10 16 0.00 0.00
4:54 am 04:54 Cloudy 77 25 73 22.8 88 88 SSW 8 13 30.17 1022 10 16 0.00 0.00
5:42 am 05:42 Cloudy 77 25 73 22.8 88 88 SSW 8 13 30.18 1022 10 16 0.00 0.00
5:46 am 05:46 Cloudy 77 25 73 22.8 88 88 SSW 9 15 30.18 1022 10 16 0.00 0.00
5:54 am 05:54 Cloudy 77 25 73 22.8 88 88 SSW 8 13 30.17 1022 10 16 0.00 0.00
6:02 am 06:02 Cloudy 77 25 73 22.8 88 88 SSW 8 13 30.18 1022 10 16 0.00 0.00
6:54 am 06:54 Cloudy 77 25 73 22.8 88 88 S 5 7 30.17 1022 10 16 0.00 0.00
7:54 am 07:54 Cloudy 78 25.6 74 23.3 87 87 S 9 15 30.19 1022 10 16 0.00 0.00
8:54 am 08:54 Cloudy 81 27.2 75 23.9 82 82 SSW 12 19 30.19 1023 10 16 0.00 0.00
9:11 am 09:11 Cloudy 81 27.2 75 23.9 82 82 SW 12 19 30.18 1022 10 16 0.00 0.00
9:54 am 09:54 Cloudy 83 28.3 75 23.9 77 77 SW 12 19 30.18 1022 10 16 0.00 0.00
10:13 am 10:13 Cloudy 83 28.3 75 23.9 77 77 SW 12 19 30.18 1022 10 16 0.00 0.00
10:27 am 10:27 Mostly Cloudy 84 28.9 75 23.9 74 74 SW 16 26 30.18 1022 10 16 0.00 0.00
10:54 am 10:54 Mostly Cloudy 85 29.4 75 23.9 72 72 SSW 13 20 30.18 1022 10 16 0.00 0.00
11:54 am 11:54 Mostly Cloudy 87 30.6 74 23.3 65 65 SW 14 22 30.17 1022 10 16 0.00 0.00
12:54 pm 12:54 Mostly Cloudy 90 32.2 72 22.2 56 56 SW 16 26 30.15 1021 10 16 0.00 0.00
1:54 pm 13:54 Mostly Cloudy 90 32.2 72 22.2 56 56 SW 13 20 30.14 1021 10 16 0.00 0.00
2:54 pm 14:54 Mostly Cloudy 93 33.9 70 21.1 47 47 SW 18 30 30.12 1020 10 16 0.00 0.00
3:54 pm 15:54 Mostly Cloudy 92 33.3 72 22.2 52 52 SSW 16 26 30.11 1020 10 16 0.00 0.00
4:54 pm 16:54 Mostly Cloudy 92 33.3 71 21.7 51 51 SSW 15 24 30.10 1019 10 16 0.00 0.00
5:54 pm 17:54 Mostly Cloudy 91 32.8 71 21.7 52 52 SW 20 31 30.10 1019 10 16 0.00 0.00
6:54 pm 18:54 Mostly Cloudy 89 31.7 71 21.7 55 55 SW 13 20 30.11 1020 10 16 0.00 0.00
7:54 pm 19:54 Mostly Cloudy 88 31.1 70 21.1 55 55 SW 16 26 30.11 1020 10 16 0.00 0.00
8:54 pm 20:54 Mostly Cloudy 87 30.6 71 21.7 59 59 SSW 9 15 30.13 1020 10 16 0.00 0.00
9:54 pm 21:54 Mostly Cloudy 85 29.4 73 22.8 68 68 SSW 10 17 30.13 1020 10 16 0.00 0.00
10:54 pm 22:54 Mostly Cloudy 85 29.4 73 22.8 68 68 SW 13 20 30.14 1021 10 16 0.00 0.00
11:54 pm 23:54 Cloudy 84 28.9 73 22.8 70 70 SW 18 30 30.13 1020 10 16 0.00 0.00

Powered by AerisWeather